Home   Weather   Salem   Past weeks
Flag for USA

Past Weather in Salem, Oregon, USA — Yesterday and Last 2 Weeks

Now
46 °F

Light rain. Overcast.


Feels Like: 42 °F
Forecast: 54 / 45 °F
Wind: 8 mph from South

Location: McNary Field

Current Time: Mar 28, 2020 at 3:04:10 am

Latest Report: Mar 28, 2020 at 1:56 am


Visibility: 10 mi

Pressure: 30.11 "Hg

Humidity: 86%

Dew Point: 42 °F

Location of SalemLocation

Past Weather in Salem — Graph

°F

Salem Temperature Yesterday

Maximum temperature yesterday: 50 °F (at 4:56 pm)
Minimum temperature yesterday: 42 °F (at 12:56 am)
Average temperature yesterday: 45 °F

High & Low Weather Summary for the Past Weeks

 TemperatureHumidityPressure
High65 °F (Mar 20, 4:56 pm)96% (Mar 14, 2:17 am)30.29 "Hg (Mar 14, 2:17 am)
Low30 °F (Mar 15, 6:56 am)31% (Mar 17, 2:56 pm)29.57 "Hg (Mar 14, 1:35 am)
Average43 °F73%29.98 "Hg
* Reported Mar 13 1:56 am — Mar 28 1:56 am, Salem. Weather by CustomWeather, © 2020

Note: Actual official high and low records may vary slightly from our data, if they occured in-between our weather recording intervals... More about our weather records

Salem Weather History for the Previous 24 Hours

Scroll right to see more
 ConditionsComfort  
Time TempWeatherWind HumidityBarometerVisibility
1:56 am
Sat, Mar 28
46 °FLight rain. Overcast.8 mph86%30.11 "Hg10 mi
12:56 am46 °FLight rain. Overcast.7 mph89%30.11 "Hg10 mi
11:56 pm
Fri, Mar 27
46 °FLight rain. Overcast.7 mph89%30.11 "Hg10 mi
10:56 pm46 °FLight rain. Overcast.8 mph89%30.11 "Hg10 mi
9:56 pm47 °FLight rain. Mostly cloudy.6 mph90%30.10 "Hg10 mi
8:56 pm47 °FLight rain. Mostly cloudy.7 mph90%30.09 "Hg10 mi
7:56 pm47 °FLight rain. Overcast.7 mph86%30.08 "Hg8 mi
6:56 pm48 °FLight rain. Cloudy.7 mph83%30.07 "Hg8 mi
5:56 pm49 °FLight rain. Mostly cloudy.7 mph84%30.06 "Hg8 mi
4:56 pm50 °FLight rain. More clouds than sun.10 mph77%30.06 "Hg10 mi
3:56 pm49 °FLight rain. Overcast.10 mph74%30.06 "Hg10 mi
3:04 pm49 °FLight rain. More clouds than sun.12 mph77%30.07 "Hg10 mi
2:56 pm49 °FLight rain. Cloudy.12 mph77%30.07 "Hg10 mi
1:56 pm48 °FLight rain. Mostly cloudy.14 mph80%30.08 "Hg10 mi
12:56 pm47 °FLight rain. Mostly cloudy.12 mph77%30.08 "Hg10 mi
12:11 pm47 °FLight rain. Mostly cloudy.13 mph77%30.08 "Hg10 mi
10:56 am45 °FOvercast.10 mph82%30.08 "Hg10 mi
9:56 am43 °FLight rain. Mostly cloudy.14 mph82%30.08 "Hg10 mi
8:56 am42 °FLight rain. Overcast.12 mph85%30.07 "Hg10 mi
7:56 am42 °FLight rain. Overcast.10 mph82%30.06 "Hg10 mi
6:56 am42 °FMostly cloudy.10 mph82%30.05 "Hg10 mi
6:07 am42 °FOvercast.9 mph82%30.05 "Hg10 mi
5:56 am42 °FOvercast.8 mph82%30.05 "Hg10 mi
4:56 am42 °FOvercast.8 mph79%30.05 "Hg10 mi
3:56 am42 °FOvercast.7 mph79%30.06 "Hg10 mi
Weather by CustomWeather, © 2020

See weather overview

Advertising